Weather History for Troy, MI

Change the Weather History Date:

Wednesday, October 23, 2013

  Actual Average (KDET) Record (KDET)
Temperature  
Mean Temperature 42 °F -  
Max Temperature 48 °F 59 °F 83 °F (1963)
Min Temperature 35 °F 43 °F 25 °F (1969)
Degree Days  
Heating Degree Days 24    
Moisture  
Dew Point 29 °F    
Average Humidity 62    
Maximum Humidity 88    
Minimum Humidity 34    
Precipitation  
Precipitation 0.00 in - - ()
Sea Level Pressure  
Sea Level Pressure 29.88 in    
Wind  
Wind Speed 5 mph (WNW)    
Max Wind Speed 15 mph    
Max Gust Speed 23 mph    
Visibility 10 miles    
Events      
Averages and records for this station are not official NWS values.
T = Trace of Precipitation, MM = Missing Value Source: NWS Daily Summary

Daily Weather History Graph

Daily Weather History Graph

Search for Another Location

Airport:

Trip Planner

Search our weather history database for the weather conditions in past years. The results will help you decide how hot, cold, wet, or windy it might be!

Date:

Astronomy

Oct. 23, 2013 Rise Set
Actual Time 7:55 AM EDT 6:37 PM EDT
Civil Twilight 7:26 AM EDT 7:06 PM EDT
Nautical Twilight 6:53 AM EDT 7:39 PM EDT
Astronomical Twilight 6:21 AM EDT 8:11 PM EDT
Moon 10:04 PM EDT (10/23) 12:14 PM EDT (10/23)
Length of Visible Light 11h 39m
Length of Day
10h 42m
Waning Gibbous, 79% of the Moon is Illuminated
Oct 23
Waning Gibbous
Oct 26
Last Quarter
Nov 3
New
Nov 10
First Quarter
Nov 17
Full

Hourly Weather History & Observations

Time (EDT) Temp. Windchill Dew Point Humidity Pressure Visibility Wind Dir Wind Speed Gust Speed Precip Events Conditions
12:14 AM 44.4 °F 42.9 °F 31.6 °F 61% 29.88 in 10.0 mi West 3.5 mph - N/A   Overcast
12:35 AM 43.7 °F 41.1 °F 31.8 °F 63% 29.88 in 10.0 mi SW 4.6 mph - N/A   Overcast
12:55 AM 43.5 °F 39.4 °F 32.0 °F 64% 29.87 in 10.0 mi WSW 6.9 mph - N/A   Overcast
1:14 AM 43.2 °F 41.5 °F 32.0 °F 65% 29.87 in 10.0 mi WSW 3.5 mph - N/A   Overcast
1:35 AM 43.7 °F 41.1 °F 32.0 °F 63% 29.87 in 10.0 mi West 4.6 mph - N/A   Overcast
1:55 AM 43.3 °F 39.2 °F 32.0 °F 64% 29.86 in 10.0 mi West 6.9 mph - N/A   Overcast
2:14 AM 43.3 °F 40.7 °F 32.0 °F 64% 29.86 in 10.0 mi WNW 4.6 mph - N/A   Overcast
2:35 AM 42.8 °F 41.1 °F 32.2 °F 66% 29.86 in 10.0 mi WNW 3.5 mph - N/A   Mostly Cloudy
2:55 AM 42.3 °F - 32.4 °F 68% 29.85 in 10.0 mi Calm Calm - N/A   Mostly Cloudy
3:14 AM 41.7 °F 39.8 °F 32.4 °F 69% 29.85 in 10.0 mi WNW 3.5 mph - N/A   Scattered Clouds
3:35 AM 41.0 °F 39.0 °F 32.7 °F 72% 29.85 in 10.0 mi WNW 3.5 mph - N/A   Clear
3:54 AM 40.1 °F - 33.3 °F 77% 29.84 in 10.0 mi Calm Calm - N/A   Clear
4:14 AM 39.2 °F 37.0 °F 33.3 °F 79% 29.83 in 10.0 mi NW 3.5 mph - N/A   Scattered Clouds
4:35 AM 38.8 °F - 33.4 °F 81% 29.83 in 10.0 mi Calm Calm - N/A   Clear
4:54 AM 38.5 °F 36.1 °F 33.3 °F 81% 29.83 in 10.0 mi WNW 3.5 mph - N/A   Clear
5:15 AM 38.3 °F 35.9 °F 33.3 °F 82% 29.82 in 10.0 mi WNW 3.5 mph - N/A   Clear
5:34 AM 37.6 °F - 33.1 °F 84% 29.83 in 10.0 mi Calm Calm - N/A   Clear
5:54 AM 37.4 °F 34.9 °F 32.9 °F 84% 29.83 in 10.0 mi NW 3.5 mph - N/A   Clear
6:14 AM 37.4 °F 34.9 °F 33.3 °F 85% 29.83 in 10.0 mi NW 3.5 mph - N/A   Clear
6:35 AM 36.7 °F 34.1 °F 32.9 °F 86% 29.84 in 10.0 mi NW 3.5 mph - N/A   Clear
6:54 AM 36.5 °F - 32.9 °F 87% 29.84 in 10.0 mi Calm Calm - N/A   Clear
7:14 AM 36.5 °F 33.9 °F 32.9 °F 87% 29.84 in 10.0 mi NW 3.5 mph - N/A   Clear
7:34 AM 35.8 °F 33.0 °F 32.2 °F 87% 29.85 in 10.0 mi NW 3.5 mph - N/A   Clear
7:55 AM 35.6 °F - 32.4 °F 88% 29.85 in 10.0 mi Calm Calm - N/A   Clear
8:14 AM 35.6 °F 32.8 °F 32.2 °F 87% 29.85 in 10.0 mi NNW 3.5 mph - N/A   Clear
8:35 AM 36.0 °F 33.3 °F 32.7 °F 88% 29.85 in 10.0 mi WNW 3.5 mph - N/A   Clear
8:54 AM 36.9 °F 34.3 °F 33.1 °F 86% 29.86 in 10.0 mi NW 3.5 mph - N/A   Clear
9:14 AM 37.6 °F 33.1 °F 33.3 °F 84% 29.86 in 10.0 mi NW 5.8 mph - N/A   Clear
9:34 AM 38.8 °F 33.8 °F 33.3 °F 80% 29.87 in 10.0 mi NNW 6.9 mph - N/A   Clear
9:54 AM 39.9 °F 35.1 °F 32.5 °F 75% 29.87 in 10.0 mi North 6.9 mph - N/A   Clear
10:14 AM 41.2 °F 36.0 °F 32.2 °F 70% 29.87 in 10.0 mi North 8.1 mph - N/A   Clear
10:34 AM 42.1 °F 38.4 °F 32.2 °F 68% 29.87 in 10.0 mi North 5.8 mph - N/A   Scattered Clouds
10:54 AM 43.7 °F 39.7 °F 31.8 °F 63% 29.87 in 10.0 mi North 6.9 mph - N/A   Scattered Clouds
11:14 AM 43.7 °F 39.1 °F 31.1 °F 61% 29.87 in 10.0 mi North 8.1 mph - N/A   Scattered Clouds
11:34 AM 44.1 °F 40.1 °F 30.7 °F 59% 29.87 in 10.0 mi NW 6.9 mph - N/A   Mostly Cloudy
11:54 AM 45.3 °F 40.1 °F 31.1 °F 58% 29.87 in 10.0 mi WNW 10.4 mph - N/A   Mostly Cloudy
12:15 PM 44.8 °F 41.0 °F 30.0 °F 56% 29.87 in 10.0 mi NNW 6.9 mph - N/A   Mostly Cloudy
12:34 PM 45.5 °F 41.8 °F 28.6 °F 52% 29.88 in 10.0 mi NW 6.9 mph - N/A   Mostly Cloudy
12:55 PM 45.0 °F 41.2 °F 26.6 °F 49% 29.87 in 10.0 mi NW 6.9 mph - N/A   Mostly Cloudy
1:14 PM 45.9 °F 41.7 °F 25.2 °F 44% 29.87 in 10.0 mi WNW 8.1 mph 16.1 mph N/A   Mostly Cloudy
1:34 PM 46.0 °F 40.6 °F 24.4 °F 43% 29.87 in 10.0 mi NW 11.5 mph 16.1 mph N/A   Mostly Cloudy
1:54 PM 46.4 °F 41.1 °F 24.3 °F 42% 29.86 in 10.0 mi NW 11.5 mph - N/A   Scattered Clouds
2:14 PM 47.7 °F - 22.8 °F 38% 29.86 in 10.0 mi WNW 15.0 mph 20.7 mph N/A   Mostly Cloudy
2:34 PM 48.4 °F - 24.3 °F 39% 29.86 in 10.0 mi NW 11.5 mph 17.3 mph N/A   Overcast
2:54 PM 47.8 °F - 21.2 °F 35% 29.86 in 10.0 mi WNW 11.5 mph 23.0 mph N/A   Overcast
3:14 PM 48.4 °F - 23.2 °F 37% 29.86 in 10.0 mi WNW 11.5 mph 18.4 mph N/A   Mostly Cloudy
3:34 PM 47.5 °F - 21.9 °F 36% 29.86 in 10.0 mi WNW 11.5 mph 17.3 mph N/A   Mostly Cloudy
3:54 PM 47.5 °F - 21.7 °F 36% 29.86 in 10.0 mi NNW 10.4 mph 16.1 mph N/A   Mostly Cloudy
4:14 PM 47.5 °F - 23.7 °F 39% 29.87 in 10.0 mi WNW 10.4 mph - N/A   Mostly Cloudy
4:34 PM 46.4 °F 42.9 °F 21.7 °F 38% 29.87 in 10.0 mi West 6.9 mph 16.1 mph N/A   Scattered Clouds
4:54 PM 46.9 °F - 19.6 °F 34% 29.87 in 10.0 mi WNW 12.7 mph 18.4 mph N/A   Mostly Cloudy
5:14 PM 47.3 °F - 19.8 °F 34% 29.88 in 10.0 mi WNW 12.7 mph 16.1 mph N/A   Overcast
5:34 PM 46.4 °F 40.7 °F 21.0 °F 37% 29.89 in 10.0 mi WNW 12.7 mph 17.3 mph N/A   Overcast
5:54 PM 45.9 °F 41.7 °F 21.9 °F 39% 29.89 in 10.0 mi WNW 8.1 mph - N/A   Overcast
6:15 PM 45.5 °F 39.9 °F 23.5 °F 42% 29.90 in 10.0 mi WNW 11.5 mph 16.1 mph N/A   Overcast
6:34 PM 45.0 °F 40.1 °F 24.4 °F 45% 29.90 in 10.0 mi West 9.2 mph 17.3 mph N/A   Overcast
6:55 PM 44.2 °F 41.8 °F 25.5 °F 48% 29.91 in 10.0 mi West 4.6 mph - N/A   Overcast
7:14 PM 44.1 °F 40.1 °F 26.1 °F 49% 29.91 in 10.0 mi West 6.9 mph - N/A   Overcast
7:34 PM 43.5 °F 38.9 °F 26.6 °F 51% 29.91 in 10.0 mi West 8.1 mph - N/A   Overcast
7:54 PM 42.8 °F 38.6 °F 27.7 °F 55% 29.92 in 10.0 mi West 6.9 mph - N/A   Mostly Cloudy
8:14 PM 42.1 °F 39.2 °F 28.0 °F 58% 29.92 in 10.0 mi West 4.6 mph - N/A   Overcast
8:35 PM 41.4 °F 37.6 °F 28.4 °F 60% 29.92 in 10.0 mi West 5.8 mph - N/A   Mostly Cloudy
8:54 PM 41.2 °F 35.0 °F 28.2 °F 60% 29.92 in 10.0 mi West 10.4 mph - N/A   Scattered Clouds
9:15 PM 41.2 °F 37.3 °F 28.4 °F 60% 29.93 in 10.0 mi West 5.8 mph - N/A   Mostly Cloudy
9:34 PM 41.2 °F 39.2 °F 28.6 °F 61% 29.93 in 10.0 mi West 3.5 mph - N/A   Mostly Cloudy
9:55 PM 40.5 °F 35.8 °F 28.4 °F 62% 29.93 in 10.0 mi West 6.9 mph - N/A   Scattered Clouds
10:14 PM 40.3 °F 35.5 °F 28.4 °F 63% 29.93 in 10.0 mi West 6.9 mph - N/A   Clear
10:35 PM 39.6 °F 36.3 °F 28.9 °F 66% 29.94 in 10.0 mi WSW 4.6 mph - N/A   Clear
10:55 PM 38.8 °F 34.6 °F 29.3 °F 69% 29.94 in 10.0 mi West 5.8 mph - N/A   Clear
11:14 PM 38.5 °F 33.4 °F 30.2 °F 72% 29.94 in 10.0 mi West 6.9 mph - N/A   Clear
11:35 PM 38.1 °F 34.6 °F 30.4 °F 74% 29.94 in 10.0 mi WSW 4.6 mph - N/A   Clear
11:54 PM 37.6 °F 33.1 °F 30.9 °F 77% 29.94 in 10.0 mi West 5.8 mph - N/A   Clear